This is the latest recevied weather packets stored in our database for station/object WB0OCV. If no packets are shown the sender has not sent any weather packets the latest 10 day(s).
| Time | Temp. | Humidity | Pressure | Rain* | Wind** | Luminosity | Snow |
|---|---|---|---|---|---|---|---|
| 1777649636 | 16.11° C | 49% | 1012.2 hPa | 0 mm | - | 939 W/m² | - |
| 1777649332 | 15.56° C | 49% | 1012 hPa | 0 mm | - | 417 W/m² | - |
| 1777649030 | 14.44° C | 52% | 1012.2 hPa | 0 mm | - | 855 W/m² | - |
| 1777648727 | 14.44° C | 51% | 1012.2 hPa | 0 mm | - | 732 W/m² | - |
| 1777648423 | 14.44° C | 51% | 1012.1 hPa | 0 mm | - | 840 W/m² | - |
| 1777648119 | 15° C | 52% | 1012.2 hPa | 0 mm | - | 305 W/m² | - |
| 1777647816 | 14.44° C | 52% | 1012.1 hPa | 0 mm | - | 875 W/m² | - |
| 1777647512 | 13.89° C | 53% | 1012.1 hPa | 0 mm | - | 799 W/m² | - |
| 1777647209 | 13.89° C | 55% | 1012.2 hPa | 0 mm | - | 448 W/m² | - |
| 1777646906 | 14.44° C | 54% | 1012.2 hPa | 0 mm | - | 508 W/m² | - |
| 1777646601 | 13.89° C | 56% | 1012.3 hPa | 0 mm | - | 445 W/m² | - |
| 1777646298 | 13.89° C | 54% | 1012.1 hPa | 0 mm | - | 411 W/m² | - |
| 1777645995 | 13.89° C | 52% | 1012.2 hPa | 0 mm | - | 859 W/m² | - |
| 1777645692 | 13.33° C | 56% | 1012.3 hPa | 0 mm | - | 726 W/m² | - |
| 1777645388 | 13.33° C | 57% | 1012.2 hPa | 0 mm | - | 502 W/m² | - |
| 1777645084 | 13.33° C | 57% | 1012.4 hPa | 0 mm | - | 454 W/m² | - |
| 1777644781 | 13.89° C | 55% | 1012.3 hPa | 0 mm | - | 492 W/m² | - |
| 1777644478 | 12.78° C | 57% | 1012 hPa | 0 mm | - | 730 W/m² | - |
| 1777644175 | 12.78° C | 55% | 1012.2 hPa | 0 mm | - | 461 W/m² | - |
| 1777643871 | 12.78° C | 55% | 1012.2 hPa | 0 mm | - | 617 W/m² | - |
| 1777643569 | 12.78° C | 59% | 1012.2 hPa | 0 mm | - | 415 W/m² | - |
| 1777643265 | 13.33° C | 61% | 1012 hPa | 0 mm | - | 491 W/m² | - |
| 1777642962 | 12.78° C | 60% | 1012 hPa | 0 mm | - | 626 W/m² | - |
| 1777642658 | 12.22° C | 60% | 1012 hPa | 0 mm | - | 613 W/m² | - |
| 1777642355 | 12.22° C | 62% | 1012.2 hPa | 0 mm | - | 218 W/m² | - |
* Rain latest hour (hover to see other rain measurements)
** Current wind speed in m/s (hover to see current wind gust speed)